Location: Philomena
(55.1756°N, 111.6233°W)
Time: 09:25:56
(UTC+00:00)

UNISAT 6 - Pass Details

Date: 29 November 2023
Orbit: 596 x 671 km, 97.7° (Epoch: 22 February)

Event Time Altitude Azimuth Distance (km) Brightness Sun altitude
Exits shadow 01:51:32 - 6° (N) 2,571 ? -22.6°
Reaches altitude 10° 01:52:48 10° 360° (N) 2,098 ? -22.8°
Maximum altitude 01:56:49 31° 298° (WNW) 1,150 ? -23.4°
Drops below altitude 10° 02:00:45 10° 237° (WSW) 2,047 ? -24.0°
Sets 02:03:06 0° 227° (SW) 2,939 ? -24.3°
